COSMOS 2529 (757)

Last updated on Wed Nov 20 2024 00:03:10 GMT+0000 (Coordinated Universal Time)

1 43687U 18086A 24324.33888622 .00000019 00000+0 00000+0 0 9994 2 43687 64.2933 212.0222 0008000 260.7985 99.1911 2.13101976 47037
UTC large
Height (km)
Speed (km/s)
/
Latitude / Longitude
Inclination (degrees)
Orbital Period (minutes)
Azimuth
Elevation
Range (km)
Doppler Factor

Next 0 passes for location: London (51.5072 / 0.1276)

Sorry there are no passes over London.